Lexington Weather

Lexington, Massachusetts, USA

68°F
9/23/2021 5:21am 
  • Lexington Conditions: Mostly cloudy
  • Temperature: 67.6°F / 19.8°CWarmer 0.9°F than last hour.
  • Dew Point: 66.7°FIncreased 1.2°Fsince last hour.
  • Relative Humidity: 97%Increased 1.0% since last hour.
  • Wind: Calm, 10-min avg: Calm, gust: 3 mph
  • Barometer: 30.03 in Steady
  • Visibility: 10 miles
  • Rain Today: 0.00 in
  •   

Regional Weather Roundup
for Boston / Norton, MA

        
000
ASUS41 KBOX 171304
RWRBOX

REGIONAL WEATHER ROUNDUP
NATIONAL WEATHER SERVICE BOSTON/NORTON MA
900 AM EDT FRI SEP 17 2021

NOTE:  "FAIR" INDICATES FEW OR NO CLOUDS BELOW 12,000 FEET WITH NO 
SIGNIFICANT WEATHER AND/OR OBSTRUCTIONS TO VISIBILITY.

MAZALL-171400-
EASTERN MASSACHUSETTS
  
CITY           SKY/WX    TMP DP  RH WIND       PRES   REMARKS
BOSTON         CLOUDY    67  62  84 NE9       30.35R                  
BEVERLY        CLOUDY    64  62  93 NE10      30.35S                  
LAWRENCE       CLOUDY    63  61  93 NE7       30.38F                  
BEDFORD        CLOUDY    62  62 100 NE5       30.35S FOG              
BLUE HILL      NOT AVBL                                               
NORWOOD        CLOUDY    67  63  87 NE9       30.34R                  
MARSHFIELD     CLOUDY    66  64  94 VRB5      30.33S                  
PLYMOUTH       CLOUDY    66  65  96 NE8       30.32S                  
TAUNTON        CLOUDY    67  65  93 VRB3      30.32S FOG              
NEW BEDFORD    CLOUDY    70  68  93 NE6       30.30S                  
$$

MAZALL-171400-
CAPE COD AND THE ISLANDS
  
CITY           SKY/WX    TMP DP  RH WIND       PRES   REMARKS
FALMOUTH       CLOUDY    68  68 100 NE9       30.31S FOG              
HYANNIS        CLOUDY    71  69  93 E6        30.29S                  
CHATHAM        CLOUDY    69  67  93 E9        30.32S                  
PROVINCETOWN   CLOUDY    67  65  93 E9        30.33S                  
NANTUCKET      CLOUDY    71  68  90 NE13G23   30.28S                  
MARTHAS VNYRD  CLOUDY    70  70 100 E9        30.29S FOG              
$$
 
MAZALL-171400-
CENTRAL AND WESTERN MASSACHUSETTS
  
CITY           SKY/WX    TMP DP  RH WIND       PRES   REMARKS
WORCESTER      FOG       60  58  92 NE6       30.36R VSB<1/4          
FITCHBURG      CLOUDY    61  58  90 N3        30.37F                  
ORANGE         CLOUDY    63  59  87 N7        30.36F                  
SPRINGFIELD    CLOUDY    66  60  81 NE6       30.32F                  
WESTFIELD      CLOUDY    65  61  87 N8        30.33F                  
NORTH ADAMS    CLOUDY    66  59  78 E8        30.34S                  
PITTSFIELD     CLOUDY    62  60  93 VRB5      30.33F                  
$$
 
RIZALL-171400-
RHODE ISLAND
  
CITY           SKY/WX    TMP DP  RH WIND       PRES   REMARKS
PROVIDENCE     CLOUDY    67  66  97 NE10      30.32S FOG              
NEWPORT        CLOUDY    68  66  93 N7        30.30S                  
BLOCK ISLAND   CLOUDY    68  66  93 NE8G16    30.29S                  
SMITHFIELD     FOG       63  63 100 NE9       30.34S VSB 1/2          
WESTERLY       CLOUDY    66  66 100 NE7       30.28F                  
$$
 
CTZALL-171400-
CONNECTICUT
  
CITY           SKY/WX    TMP DP  RH WIND       PRES   REMARKS
BRADLEY INTL   CLOUDY    65  61  87 N6        30.33R                  
HARTFORD       CLOUDY    67  61  81 N8        30.31S                  
BRIDGEPORT     CLOUDY    69  65  86 NE10      30.28F                  
DANBURY        CLOUDY    67  64  90 NE6       30.31S FOG              
GROTON         CLOUDY    70  66  87 N10       30.28S                  
NEW HAVEN      CLOUDY    70  66  87 NE8       30.28F                  
CHESTER        CLOUDY    66  64  94 VRB8      30.30F                  
MERIDEN        CLOUDY    67  61  81 N8        30.30F                  
WILLIMANTIC    CLOUDY    65  63  93 N6        30.33R                  
OXFORD         CLOUDY    64  63  94 NE8       30.32S FOG              
$$

MEZ002-015-021-024-NHZ003-005-008-011-012-014-VTZ005-008-171400-
NORTHERN NEW ENGLAND
  
CITY           SKY/WX    TMP DP  RH WIND       PRES   REMARKS
PORTLAND ME    MOSUNNY   61  54  77 NE5       30.39F                  
BANGOR ME      MOSUNNY   59  54  83 CALM      30.41F                  
CONCORD NH     CLOUDY    61  55  81 NE5       30.38S                  
MANCHESTER NH  CLOUDY    62  57  83 N8        30.36S                  
NASHUA NH      CLOUDY    61  61 100 N7        30.37F                  
PORTSMOUTH NH  PTSUNNY   62  57  84 N6        30.38S                  
JAFFREY NH     CLOUDY    60  59  96 VRB3      30.38S                  
KEENE NH       CLOUDY    63  58  83 NE3       30.37S                  
BURLINGTON VT  PTSUNNY   68  61  78 S5        30.29F                  
MT. WASHINGTON FOG       48  48 100 W13         N/A  VSB 1/16         
$$

NYZ052-076-171400-
EASTERN NEW YORK
  
CITY           SKY/WX    TMP DP  RH WIND       PRES   REMARKS
ALBANY         CLOUDY    64  63  96 CALM      30.31F                  
NEW YORK CITY  CLOUDY    71  66  84 NE16      30.26S                  
$$
 
ANZALL-171400-
MARINE OBSERVATIONS
  
STATION/POSITION TIME  TEMP    WIND        PRES    VSBY  WAVE
                       AIR SEA DIR/SP/G                  HT/PER
                 (UTC) (F)     (DEG/KT/KT) (MB)    (MI)  (FT/S)
BOSTON BUOY      1240      67   30/ 12/ 16 1027.7R
BUZZARDS BAY     1200           40/ 14/ 15 1026.6R
NANTUCKET SOUND  1240   70 72   80/ 16/ 17 1025.7S
MASS BAY-STELLWA 1204   65      40/ 12/ 14 1027.2R  1 7/8  2/ 4
ISLE OF SHOALS   1200   62      30/ 16/ 19 1027.7R
S OF BLOCK IS    1226      69                N/A           4/ 6
$$

......................KEY.........................
  SKY/WX - SKY CONDITION/PRESENT WEATHER
  TMP    - TEMPERATURE IN FAHRENHEIT
  DWPT   - DEWPOINT IN FAHRENHEIT
  RH     - RELATIVE HUMIDITY IN PERCENT
  WIND   - DIRECTION AND SPEED IN MPH
  PRES   - MEAN SEA LEVEL PRESSURE IN INCHES OF HG
  WCI    - WIND CHILL INDEX
  VSB    - VISIBILITY IN MILES
  HX     - HEAT INDEX
  TC     - TEMPERATURE IN CELSIUS
  VRB    - VARIABLE WIND DIRECTION
  N/A    - NOT AVAILABLE
  
      

Other recent Regional Weather Roundups

Thu Sep 23, 5:04am

Thu Sep 23, 4:04am

Thu Sep 23, 3:04am

Thu Sep 23, 2:04am

Thu Sep 23, 1:04am

Thu Sep 23, 12:04am

Wed Sep 22, 11:04pm

Wed Sep 22, 10:04pm

Wed Sep 22, 9:04pm

Wed Sep 22, 8:04pm

Wed Sep 22, 7:04pm

Wed Sep 22, 6:04pm

Wed Sep 22, 5:04pm

Wed Sep 22, 4:04pm

Wed Sep 22, 3:04pm

Wed Sep 22, 2:04pm

Wed Sep 22, 1:04pm

Wed Sep 22, 12:05pm

Wed Sep 22, 11:04am

Wed Sep 22, 10:04am

Wed Sep 22, 9:04am

Wed Sep 22, 8:04am

Wed Sep 22, 7:04am

Wed Sep 22, 6:04am

Wed Sep 22, 5:04am

Wed Sep 22, 4:04am

Wed Sep 22, 3:04am

Wed Sep 22, 2:04am

Wed Sep 22, 1:04am

Wed Sep 22, 12:04am

Tue Sep 21, 11:04pm

Tue Sep 21, 10:04pm

Tue Sep 21, 9:04pm

Tue Sep 21, 8:04pm

Tue Sep 21, 7:04pm

Tue Sep 21, 6:04pm

Tue Sep 21, 5:04pm

Tue Sep 21, 4:04pm

Tue Sep 21, 3:04pm

Tue Sep 21, 2:04pm

Tue Sep 21, 1:04pm

Tue Sep 21, 12:04pm

Tue Sep 21, 11:04am

Tue Sep 21, 10:04am

Tue Sep 21, 9:04am

Tue Sep 21, 8:04am

Tue Sep 21, 7:04am

Tue Sep 21, 6:04am

Tue Sep 21, 5:04am

Tue Sep 21, 4:04am

Tue Sep 21, 3:04am

Tue Sep 21, 2:04am

Tue Sep 21, 1:04am

Tue Sep 21, 12:04am

Mon Sep 20, 11:04pm

Mon Sep 20, 10:04pm

Mon Sep 20, 9:04pm

Mon Sep 20, 8:04pm

Mon Sep 20, 7:04pm

Mon Sep 20, 6:04pm

Mon Sep 20, 5:04pm

Mon Sep 20, 4:04pm

Mon Sep 20, 3:04pm

Mon Sep 20, 2:04pm

Mon Sep 20, 1:04pm

Mon Sep 20, 12:04pm

Mon Sep 20, 11:04am

Mon Sep 20, 10:04am

Mon Sep 20, 9:04am

Mon Sep 20, 7:04am

Mon Sep 20, 6:04am

Mon Sep 20, 5:04am

Mon Sep 20, 4:04am

Mon Sep 20, 3:04am

Mon Sep 20, 2:04am

Mon Sep 20, 1:04am

Mon Sep 20, 12:04am

Sun Sep 19, 11:04pm

Sun Sep 19, 10:04pm

Sun Sep 19, 9:04pm

Sun Sep 19, 8:04pm

Sun Sep 19, 7:04pm

Sun Sep 19, 6:04pm

Sun Sep 19, 5:04pm

Sun Sep 19, 4:04pm

Sun Sep 19, 3:04pm

Sun Sep 19, 2:05pm

Sun Sep 19, 1:04pm

Sun Sep 19, 12:04pm

Sun Sep 19, 11:04am

Sun Sep 19, 10:05am

Sun Sep 19, 9:04am

Sun Sep 19, 8:04am

Sun Sep 19, 7:04am

Sun Sep 19, 6:04am

Sun Sep 19, 5:04am

Sun Sep 19, 4:04am

Sun Sep 19, 3:04am

Sun Sep 19, 2:04am

Sun Sep 19, 1:04am

Sun Sep 19, 12:04am

Sat Sep 18, 11:05pm

Sat Sep 18, 10:04pm

Sat Sep 18, 9:04pm

Sat Sep 18, 8:04pm

Sat Sep 18, 7:04pm

Sat Sep 18, 6:04pm

Sat Sep 18, 5:04pm

Sat Sep 18, 4:04pm

Sat Sep 18, 3:04pm

Sat Sep 18, 2:04pm

Sat Sep 18, 1:04pm

Sat Sep 18, 12:04pm

Sat Sep 18, 11:04am

Sat Sep 18, 10:04am

Sat Sep 18, 9:04am

Sat Sep 18, 8:04am

Sat Sep 18, 7:04am

Sat Sep 18, 6:04am

Sat Sep 18, 5:04am

Sat Sep 18, 4:04am

Sat Sep 18, 3:04am

Sat Sep 18, 2:04am

Sat Sep 18, 1:04am

Sat Sep 18, 12:04am

Fri Sep 17, 11:04pm

Fri Sep 17, 10:04pm

Fri Sep 17, 9:04pm

Fri Sep 17, 8:04pm

Fri Sep 17, 7:04pm

Fri Sep 17, 6:04pm

Fri Sep 17, 5:04pm

Fri Sep 17, 4:04pm

Fri Sep 17, 3:04pm

Fri Sep 17, 2:04pm

Fri Sep 17, 1:04pm

Fri Sep 17, 12:05pm

Fri Sep 17, 11:04am

Fri Sep 17, 10:04am

Fri Sep 17, 8:04am

Fri Sep 17, 7:04am

Fri Sep 17, 6:04am

Fri Sep 17, 5:04am

Fri Sep 17, 4:04am

Fri Sep 17, 3:04am

Fri Sep 17, 2:04am

Fri Sep 17, 1:04am

Fri Sep 17, 12:04am

Thu Sep 16, 11:04pm

Thu Sep 16, 10:04pm

Thu Sep 16, 9:04pm

Thu Sep 16, 8:04pm

Thu Sep 16, 7:04pm

Thu Sep 16, 6:04pm

Thu Sep 16, 5:04pm

Thu Sep 16, 4:04pm

Thu Sep 16, 3:04pm

Thu Sep 16, 2:04pm

Thu Sep 16, 1:05pm

Thu Sep 16, 12:04pm

Thu Sep 16, 11:05am

Thu Sep 16, 10:05am

Thu Sep 16, 9:04am

Thu Sep 16, 8:04am

Thu Sep 16, 7:04am

Thu Sep 16, 6:04am

Meta data:

ID: 95199672-0c6c-4061-bbe3-55f48b6cca48
Link: https://api.weather.gov/products/95199672-0c6c-4061-bbe3-55f48b6cca48